[[{"header":{"parameterUnit":"m.s-1","parameterCategory":1,"la1":30.2991,"la2":30.254,"lo1":-89.0895,"lo2":-89.0444,"dy":0.0017,"dx":0.0017,"nx":28,"ny":28,"refTime":"2024-02-05T09:00:00:Z","depth":0,"parameterNumber":2,"parameterNumberName":"U-component_of_WINDS"},"data":[0,0,0,0,0,0,0,0,0,0,0,0,0,0,0,0,0,0,0,0,0,0,0,0,0,0,0,0,0,0,0,0,0,0,0,0,0,0,0,0,0,0,0,0,0,0,0,0,0,0,0,0,0,0,0,0,0,0,0.9972,0.9971,0,0.9884,0.9883,0.9882,0.9848,0.9848,0.9848,0.9849,0.9753,0.975,0.9747,0,0,0,0,0,0,0,0,0,0,0,0,0,1.0108,1.0106,0.9973,0.9971,0.997,0.9884,0.9883,0.9881,0.9848,0.9848,0.9848,0.9849,0.9754,0.975,0.9747,0,0,0,0,0,0,0,0,0,0,0,0,0,1.0037,1.0105,0.9973,0.9943,0.994,0.9884,0.9883,0.9881,0.9848,0.9848,0.9849,0.9849,0.9755,0.9751,0.9746,0.9712,0,0,0.9734,0.9732,0,0,0,0,0,0,0,0,1.0041,1.0032,0.9949,0.9945,0.9941,0.9877,0.9895,0.9824,0.9848,0.9882,0.9849,0.9849,0.9793,0.9786,0.9768,0.9708,0.9704,0.9733,0.9731,0.9729,0.9728,0,0,0,0,0,0,0,1.0046,1.0036,0.9937,0.9947,0.9943,0.9933,0.9923,0.9882,0.9837,0.9879,0.9877,0.9867,0.9791,0.9773,0.9766,0.9702,0.9733,0.973,0.9727,0.9725,0.9608,0.9608,0,0,0,0,0,0,1.0057,1.004,0.994,0.9935,0.9993,0.993,0.9919,0.9897,0.9837,0.9828,0.9867,0.9866,0.978,0.9771,0.9762,0.9718,0.9729,0.9725,0.9722,0.9609,0.9608,0.9608,0,0,0,0,0,0,1.006,1.0048,0.9944,0.9987,0.9973,0.9927,0.9903,0.9895,0.9876,0.9828,0.9819,0.9856,0.978,0.9768,0.9725,0.9714,0.9723,0.9719,0.961,0.9609,0.9608,0.9629,0,0,0,0,0,0,1.0064,1.005,1.0037,0.9987,0.9971,0.9909,0.9902,0.9893,0.987,0.9868,0.9815,0.9807,0.9779,0.9732,0.9721,0.9708,0.9716,0.961,0.9609,0.9608,0.9629,0.9629,0.9629,0,0,0,0,0,1.0069,1.0045,1.0037,1.0025,0.9954,0.9909,0.9899,0.9869,0.9869,0.9855,0.9824,0.9808,0.9718,0.9728,0.9715,0.9701,0.9611,0.961,0.9608,0.9629,0.9629,0.9629,0,0,0,0,0,0,1.0093,1.0038,1.0028,0.9988,0.9953,0.9903,0.9885,0.987,0.9834,0.9833,0.9796,0.9784,0.9744,0.9718,0.9731,0.9665,0.9663,0.9659,0.9683,0.9683,0.9682,0.9689,0.9712,0,0,0,0,0,1.0095,1.0064,1.0017,0.9986,0.9969,0.993,0.9909,0.989,0.9852,0.9837,0.9802,0.9765,0.9728,0.9704,0.9667,0.9626,0.9613,0.961,0.961,0.961,0.9607,0.9583,0.9581,0.9604,0.9604,0.9604,0,0,1.0095,1.0062,1.0044,0.999,0.9961,0.9928,0.9918,0.9884,0.9859,0.9831,0.9788,0.9762,0.9718,0.9675,0.9655,0.9653,0.9598,0.9609,0.9609,0.9605,0.9581,0.9579,0.9577,0.9603,0.9603,0.9603,0,0,1.0081,1.0053,1.0024,0.9996,0.9953,0.9927,0.9921,0.9873,0.9855,0.9812,0.979,0.9759,0.9697,0.9666,0.9642,0.9618,0.9601,0.9607,0.9605,0.9582,0.9581,0.9579,0.9569,0.9566,0.9604,0.9604,0.9604,0,1.0087,1.0039,1.001,0.9978,0.9954,0.9929,0.9899,0.9872,0.9819,0.9803,0.9802,0.9723,0.9691,0.9641,0.9636,0.9617,0.9607,0.9612,0.9584,0.9581,0.9579,0.957,0.9566,0.9605,0.9605,0.9604,0.9604,0,1.0048,1.0015,0.9997,0.9948,0.9923,0.9891,0.9857,0.9834,0.9817,0.9791,0.9748,0.9709,0.9664,0.9651,0.9633,0.9599,0.9599,0.9591,0.9588,0.9578,0.9569,0.9565,0.9606,0.9606,0.9605,0.9605,0,0,1.0045,0.9982,0.9976,0.9954,0.9905,0.9878,0.9846,0.9804,0.9784,0.9749,0.972,0.9668,0.9661,0.9634,0.9613,0.9593,0.9575,0.9587,0.9585,0.9585,0.9533,0.9539,0.9535,0.9565,0.9564,0.9563,0.9537,0,1.0023,0.9966,0.9939,0.9893,0.9861,0.9838,0.9809,0.9776,0.9751,0.972,0.9692,0.9656,0.965,0.9633,0.9613,0.9581,0.9564,0.9583,0.9535,0.9534,0.9546,0.953,0.9535,0.9512,0.9533,0.9532,0.9532,0,0.999,0.9956,0.9907,0.9863,0.9849,0.9824,0.9783,0.9754,0.9716,0.9699,0.967,0.965,0.9613,0.9615,0.9563,0.9577,0.9556,0.9538,0.9536,0.9529,0.9531,0.9522,0.9504,0.95,0.9526,0.9526,0.9527,0,0.9991,0.9934,0.9897,0.9879,0.9826,0.9809,0.9786,0.9748,0.9725,0.9689,0.9673,0.9633,0.9611,0.958,0.9549,0.9553,0.95,0.9499,0.9484,0.9485,0.9473,0.9474,0.9451,0.9462,0.9462,0.9462,0.9462,0,0.9969,0.9939,0.9897,0.9874,0.984,0.981,0.9777,0.9752,0.9719,0.969,0.9667,0.964,0.9601,0.9569,0.9544,0.9505,0.9495,0.948,0.9473,0.9481,0.9483,0.9466,0.9466,0.9461,0.9461,0.9461,0.9462,0,0.9964,0.9935,0.9893,0.9848,0.9836,0.9813,0.9773,0.9749,0.9725,0.9688,0.9678,0.9638,0.9599,0.9565,0.9513,0.9497,0.9456,0.9449,0.947,0.9466,0.9453,0.9454,0.9416,0.941,0.9427,0.9427,0.9427,0,0.9951,0.9928,0.9881,0.9861,0.9839,0.9807,0.9783,0.9753,0.9729,0.9684,0.9665,0.9625,0.9591,0.953,0.9495,0.9455,0.9446,0.9436,0.944,0.9448,0.9445,0.9446,0.9443,0.9435,0.9435,0.9435,0.9435,0,0.9931,0.9918,0.9886,0.9849,0.9822,0.9791,0.9759,0.9743,0.9707,0.9681,0.9642,0.9616,0.9564,0.9524,0.9481,0.9455,0.9438,0.9435,0.9429,0.9436,0.9448,0.944,0.9468,0.9435,0.9435,0.9435,0.9435,0.9435,0.9921,0.9899,0.9863,0.9828,0.9802,0.9773,0.9748,0.9721,0.9689,0.9645,0.9629,0.9589,0.955,0.9491,0.9466,0.9433,0.943,0.9422,0.942,0.9418,0.9419,0.9455,0.9425,0.9425,0.9425,0.9425,0.9425,0,0.9899,0.9875,0.9843,0.98,0.9772,0.9762,0.9726,0.9703,0.9669,0.9636,0.9603,0.9558,0.9519,0.9483,0.9442,0.9422,0.9414,0.9413,0.9413,0.9407,0.9424,0.9433,0.942,0.942,0.942,0.942,0.942,0.942,0.9884,0.9847,0.983,0.9779,0.9755,0.9717,0.9697,0.967,0.9643,0.9594,0.9563,0.954,0.9505,0.9462,0.9425,0.9415,0.9401,0.9401,0.9389,0.9405,0.9406,0.9407,0.9415,0.9399,0.9399,0.9375,0.9375,0.9375]},{"header":{"parameterUnit":"m.s-1","parameterCategory":1,"la1":30.2991,"la2":30.254,"lo1":-89.0895,"lo2":-89.0444,"dy":0.0017,"dx":0.0017,"nx":28,"ny":28,"refTime":"2024-02-05T09:00:00:Z","depth":0,"parameterNumber":3,"parameterNumberName":"V-component_of_WINDS"},"data":[0,0,0,0,0,0,0,0,0,0,0,0,0,0,0,0,0,0,0,0,0,0,0,0,0,0,0,0,0,0,0,0,0,0,0,0,0,0,0,0,0,0,0,0,0,0,0,0,0,0,0,0,0,0,0,0,0,0,-6.1688,-6.169,0,-6.1819,-6.182,-6.1822,-6.1747,-6.1744,-6.174,-6.1737,-6.1868,-6.1874,-6.1881,0,0,0,0,0,0,0,0,0,0,0,0,0,-6.1373,-6.1379,-6.1688,-6.169,-6.1691,-6.1818,-6.182,-6.1822,-6.1748,-6.1744,-6.1739,-6.1735,-6.1865,-6.1873,-6.1882,0,0,0,0,0,0,0,0,0,0,0,0,0,-6.1507,-6.1381,-6.1688,-6.167,-6.167,-6.1818,-6.182,-6.1822,-6.1749,-6.1744,-6.1738,-6.1733,-6.1863,-6.1873,-6.1883,-6.2056,0,0,-6.1914,-6.1919,0,0,0,0,0,0,0,0,-6.1499,-6.1519,-6.1671,-6.1671,-6.1671,-6.1761,-6.1757,-6.1901,-6.175,-6.1719,-6.1737,-6.173,-6.1836,-6.1849,-6.1885,-6.2062,-6.2067,-6.1915,-6.1921,-6.1926,-6.1929,0,0,0,0,0,0,0,-6.149,-6.1513,-6.174,-6.1673,-6.1673,-6.1655,-6.1668,-6.1784,-6.1806,-6.1721,-6.1716,-6.1733,-6.1835,-6.1875,-6.1887,-6.2069,-6.1915,-6.1924,-6.193,-6.1934,-6.2395,-6.24,0,0,0,0,0,0,-6.1482,-6.1505,-6.1735,-6.1743,-6.157,-6.1665,-6.1679,-6.1738,-6.1805,-6.181,-6.1737,-6.1729,-6.186,-6.1875,-6.1892,-6.2099,-6.1926,-6.1935,-6.1941,-6.2389,-6.2396,-6.2403,0,0,0,0,0,0,-6.1476,-6.1504,-6.173,-6.1623,-6.1651,-6.1676,-6.1742,-6.1743,-6.1783,-6.1817,-6.1821,-6.1774,-6.1857,-6.1877,-6.2016,-6.2103,-6.194,-6.1949,-6.2382,-6.2391,-6.2399,-6.2515,0,0,0,0,0,0,-6.1467,-6.1502,-6.1568,-6.1625,-6.1657,-6.1853,-6.1748,-6.175,-6.1801,-6.1791,-6.1852,-6.1857,-6.1854,-6.2001,-6.2026,-6.2114,-6.1958,-6.2374,-6.2386,-6.2396,-6.2504,-6.2527,-6.2547,0,0,0,0,0,-6.1456,-6.1595,-6.1572,-6.16,-6.174,-6.1858,-6.1876,-6.187,-6.1809,-6.1875,-6.1897,-6.1855,-6.2089,-6.2016,-6.2043,-6.2136,-6.2368,-6.2382,-6.2396,-6.2494,-6.2523,-6.2547,0,0,0,0,0,0,-6.1547,-6.1602,-6.1577,-6.1739,-6.1795,-6.1846,-6.193,-6.19,-6.1974,-6.1962,-6.195,-6.1965,-6.2109,-6.2136,-6.2053,-6.2307,-6.2219,-6.2239,-6.2284,-6.2312,-6.2333,-6.2324,-6.1966,0,0,0,0,0,-6.1585,-6.1678,-6.172,-6.1859,-6.1888,-6.1905,-6.1956,-6.1946,-6.2003,-6.2026,-6.2058,-6.2114,-6.22,-6.2257,-6.2338,-6.2507,-6.2519,-6.2584,-6.2606,-6.2623,-6.2641,-6.2733,-6.2762,-6.2447,-6.2447,-6.2447,0,0,-6.1666,-6.1708,-6.1767,-6.1878,-6.192,-6.2015,-6.1925,-6.2029,-6.2099,-6.2041,-6.2175,-6.2201,-6.2262,-6.2417,-6.2487,-6.2444,-6.2731,-6.2641,-6.2655,-6.2663,-6.275,-6.278,-6.2806,-6.2456,-6.2455,-6.2453,0,0,-6.1863,-6.1904,-6.2024,-6.2068,-6.2134,-6.2143,-6.2172,-6.2228,-6.2244,-6.2377,-6.2336,-6.2419,-6.2567,-6.2613,-6.2656,-6.2871,-6.2835,-6.2897,-6.3011,-6.3101,-6.3125,-6.3147,-6.3225,-6.3252,-6.2914,-6.2915,-6.2915,0,-6.1955,-6.2098,-6.2089,-6.2197,-6.2247,-6.22,-6.2322,-6.2365,-6.2453,-6.2489,-6.2439,-6.2625,-6.2663,-6.2829,-6.2881,-6.2917,-6.2949,-6.2891,-6.3123,-6.3145,-6.3165,-6.3239,-6.3268,-6.2922,-6.2921,-6.292,-6.2919,0,-6.2208,-6.2308,-6.2397,-6.2485,-6.2545,-6.2659,-6.2667,-6.2729,-6.2714,-6.2729,-6.2866,-6.291,-6.3,-6.3038,-6.3024,-6.3202,-6.3173,-6.3124,-6.3035,-6.3202,-6.3271,-6.3299,-6.2932,-6.2929,-6.2927,-6.2926,0,0,-6.2466,-6.2548,-6.2581,-6.2621,-6.2689,-6.2766,-6.2878,-6.2966,-6.302,-6.3082,-6.3176,-6.3302,-6.3257,-6.3306,-6.3297,-6.3375,-6.3543,-6.3316,-6.3317,-6.3358,-6.3743,-6.378,-6.3813,-6.352,-6.3525,-6.3529,-6.3738,0,-6.2668,-6.2865,-6.286,-6.3043,-6.3135,-6.3092,-6.3189,-6.3242,-6.3259,-6.3338,-6.3356,-6.3447,-6.338,-6.3409,-6.3485,-6.3507,-6.3621,-6.3492,-6.3607,-6.3611,-6.3594,-6.3849,-6.3889,-6.4084,-6.3765,-6.3769,-6.3772,0,-6.293,-6.3002,-6.3195,-6.3251,-6.3289,-6.3377,-6.3458,-6.3535,-6.3594,-6.36,-6.3655,-6.3634,-6.3747,-6.3655,-6.381,-6.3722,-6.3769,-6.3787,-6.3794,-6.3805,-6.3703,-6.3868,-6.4146,-6.4176,-6.3815,-6.3811,-6.3808,0,-6.31,-6.3245,-6.338,-6.3415,-6.3483,-6.3546,-6.3577,-6.363,-6.3684,-6.3754,-6.3789,-6.3871,-6.3917,-6.398,-6.3981,-6.3914,-6.4139,-6.4047,-6.4147,-6.4148,-6.4198,-6.4195,-6.4488,-6.4226,-6.4225,-6.4225,-6.4224,0,-6.3326,-6.3446,-6.3457,-6.354,-6.3673,-6.3666,-6.3797,-6.3822,-6.387,-6.3956,-6.3922,-6.4004,-6.4,-6.4082,-6.4083,-6.4212,-6.4232,-6.4241,-6.424,-6.4245,-6.4244,-6.4276,-6.4263,-6.4233,-6.4231,-6.4229,-6.4228,0,-6.3539,-6.3551,-6.3695,-6.3748,-6.3765,-6.386,-6.3905,-6.3984,-6.3997,-6.4107,-6.4132,-6.4154,-6.4249,-6.4257,-6.4366,-6.4367,-6.4524,-6.4507,-6.4505,-6.4502,-6.4603,-6.4594,-6.4928,-6.4972,-6.468,-6.4683,-6.4685,0,-6.3684,-6.3775,-6.3838,-6.3895,-6.393,-6.402,-6.4075,-6.4072,-6.4131,-6.4204,-6.4274,-6.4366,-6.444,-6.4594,-6.4619,-6.4703,-6.4689,-6.48,-6.4701,-6.4703,-6.4692,-6.4687,-6.4696,-6.482,-6.4823,-6.4825,-6.4828,0,-6.3939,-6.3941,-6.4022,-6.4106,-6.4173,-6.4239,-6.43,-6.4348,-6.4351,-6.4419,-6.4517,-6.4574,-6.4687,-6.4779,-6.4861,-6.4892,-6.4861,-6.4858,-6.4886,-6.4893,-6.4888,-6.4893,-6.4558,-6.4851,-6.4849,-6.4847,-6.4846,-6.4845,-6.4123,-6.4202,-6.426,-6.4352,-6.4398,-6.4456,-6.4533,-6.4557,-6.4639,-6.4731,-6.4723,-6.4832,-6.4888,-6.4995,-6.5032,-6.5117,-6.5079,-6.5119,-6.5129,-6.514,-6.5151,-6.4874,-6.5131,-6.5131,-6.513,-6.5129,-6.5129,0,-6.4377,-6.4412,-6.4497,-6.4585,-6.4657,-6.4622,-6.4688,-6.4751,-6.4847,-6.4902,-6.4976,-6.5089,-6.5178,-6.521,-6.5297,-6.5358,-6.5346,-6.5381,-6.5377,-6.5385,-6.5179,-6.5147,-6.539,-6.5389,-6.5389,-6.5389,-6.5389,-6.5389,-6.4518,-6.4652,-6.466,-6.4816,-6.4849,-6.4957,-6.4998,-6.5051,-6.5095,-6.5223,-6.5298,-6.5318,-6.5364,-6.5454,-6.5534,-6.5541,-6.5575,-6.5617,-6.5618,-6.5425,-6.5399,-6.5374,-6.5344,-6.5624,-6.5624,-6.5816,-6.5818,-6.582]}]]